Flag for U.S.A. Weather past 2 weeks in Youngstown, Ohio, U.S.A.

Now
50 °F

Passing clouds.


Feels Like: 48 °F
Forecast: 38 / 62 °F
Wind: 6 mph from South

Location: Youngstown-Warren Regional Airport

Current Time: Apr 1, 2015 at 9:25:12 PM

Latest Report: Apr 1, 2015 at 8:51 PM


Visibility: 10 mi

Pressure: 30.12 "Hg

Humidity: 46%

Dew point: 30 °F

Location of YoungstownLocation

Historic Weather in Youngstown — Graph

°F

Youngstown temperature yesterday

Maximum temperature yesterday: 45 °F (at 12:51 PM)
Minimum temperature yesterday: 30 °F (at 10:51 PM)
Average temperature yesterday: 36 °F

Past Weeks' High & Low Weather Summary

 TemperatureHumidityPressure
High59 °F (Mar 25, 4:51 PM)97% (Mar 26, 3:51 AM)30.37 "Hg (Mar 26, 3:51 AM)
Low12 °F (Mar 28, 6:51 AM)26% (Mar 19, 4:51 PM)29.67 "Hg (Mar 31, 11:51 AM)
Average34 °F66%30.10 "Hg
* Reported Mar 17 7:51 PM — Apr 1 7:51 PM, Youngstown, Weather by CustomWeather, © 2015

Note: Actual official high and low records may vary slightly from our data, if they occured in-between our weather recording intervals... More about our weather records

Advertising

Youngstown weather history for previous 24 hours

 ConditionsComfort  
Time TempWeatherWind HumidityBarometerVisibility
7:51 PM
Wed, Apr 1
53 °FPassing clouds.3 mph41%30.11 "Hg10 mi
6:51 PM56 °FPassing clouds.5 mph37%30.11 "Hg10 mi
5:51 PM55 °FPassing clouds.6 mph39%30.12 "Hg10 mi
4:51 PM55 °FScattered clouds.8 mph40%30.13 "Hg10 mi
3:51 PM54 °FPartly sunny.10 mph41%30.15 "Hg10 mi
2:51 PM51 °FBroken clouds.6 mph46%30.16 "Hg10 mi
1:51 PM49 °FScattered clouds.6 mph48%30.17 "Hg10 mi
12:51 PM46 °FCloudy.5 mph48%30.19 "Hg10 mi
11:51 AM44 °FCloudy.5 mph53%30.18 "Hg10 mi
10:51 AM41 °FBroken clouds.7 mph58%30.16 "Hg10 mi
9:51 AM37 °FScattered clouds.5 mph70%30.14 "Hg10 mi
8:51 AM32 °FBroken clouds.3 mph82%30.13 "Hg10 mi
7:51 AM28 °FIce fog.No wind93%30.12 "Hg6 mi
6:51 AM28 °FPassing clouds.No wind93%30.08 "Hg7 mi
5:51 AM27 °FPassing clouds.5 mph89%30.06 "Hg8 mi
4:51 AM27 °FPassing clouds.5 mph92%30.04 "Hg8 mi
3:51 AM27 °FPassing clouds.5 mph89%30.03 "Hg9 mi
2:51 AM27 °FPassing clouds.3 mph92%30.02 "Hg9 mi
1:51 AM28 °FPassing clouds.5 mph89%30.03 "Hg10 mi
12:51 AM29 °FPassing clouds.3 mph85%30.03 "Hg10 mi
11:51 PM
Tue, Mar 31
30 °FClear.3 mph85%30.03 "Hg10 mi
10:51 PM30 °FClear.6 mph82%30.02 "Hg10 mi
9:51 PM32 °FPassing clouds.8 mph75%30.00 "Hg10 mi
Weather by CustomWeather, © 2015

See weather overviewHow to use our weather pages